千帆星座-127(QIANFAN-127)

Basic Information
目录编号:
68654
目录名称:
QIANFAN-127
国际标识:
2026-075U
轨道中心:
EARTH
卫星名称:
千帆星座-127
卫星全名:
千帆星座-127(QIANFAN-127)
卫星状态:
在轨 (已飞行10 天)
发射日期:
2026-04-07 UTC
国别 :
中国 (CN)
星等 :
--
Orbit Information
数据来源 国际轨道数据 AOE轨道数据
星历时间 2026-04-17T14:22:37+0800
7小时前
查看轨道信息
2026-04-16T22:00:00+0800
1天前
查看轨道信息
半长轴 7136.523km 7136.519km
偏心率 0.007366 0.0073503
轨道倾角 88.990° 88.991°
近地点辐角 88.077° 90.408°
升交点赤经 327.567° 327.647°
平近点角 272.886° 335.332°
近地点 705.818km 705.926km
远地点 810.954km 810.838km
周期 99.998分钟 99.998分钟
每日圈数 14.400342 14.400354
Detailed Information
卫星平台:
127
覆盖范围:
全球
运营商:
上海垣信卫星科技有限公司
运营商所在国:
中国
使用方式:
暂无
Satellite Introduction
千帆星座,也被称为“G60星链”计划,是中国版“星链”的重要组成部分,旨在打造一个由1.4万多颗低轨宽频多媒体卫星构成的庞大星座。千帆星座计划由上海垣信卫星科技有限公司负责实施,于2023年启动建设。该项目是我国第二个低轨卫星大星座,旨在通过构建庞大的卫星网络,为全球用户提供高质量的通信和宽带互联网服务。
2D Orbit Map
3D Orbit Map
Orbit Altitude Analysis Chart
Orbit Inclination Analysis Chart
Orbit Comprehensive Analysis Chart
View Comprehensive Chart